Weather History for VTBD - February, 2014

Change the Weather History Date:

Thursday, February 6, 2014

  Actual Average Record
Temperature  
Mean Temperature 83 °F -  
Max Temperature 89 °F 91 °F 96 °F (1997)
Min Temperature 77 °F 74 °F 66 °F (1999)
Cooling Degree Days 18    
Growing Degree Days 33 (Base 50)    
Moisture  
Dew Point 72 °F    
Average Humidity 71    
Maximum Humidity 89    
Minimum Humidity 42    
Precipitation  
Precipitation 0.00 in 0.03 in - ()
Sea Level Pressure  
Sea Level Pressure 29.76 in    
Wind  
Wind Speed 7 mph ()    
Max Wind Speed 12 mph    
Max Gust Speed -    
Visibility 5.4 miles    
Events      
Averages and records for this station are not official NWS values.
T = Trace of Precipitation, MM = Missing Value Source: Averaged Metar Reports

Daily Weather History Graph

Daily Weather History Graph

Search for Another Location

Airport or City:

Trip Planner

Search our weather history database for the weather conditions in past years. The results will help you decide how hot, cold, wet, or windy it might be!

Date:

Astronomy

Feb. 06, 2014 Rise Set
Actual Time 6:44 AM ICT 6:19 PM ICT
Civil Twilight 6:21 AM ICT 6:41 PM ICT
Nautical Twilight 5:56 AM ICT 7:06 PM ICT
Astronomical Twilight 5:31 AM ICT 7:32 PM ICT
Moon 11:29 AM ICT (2/6) No Moon Set
Length of Visible Light 12h 19m
Length of Day
11h 35m
Waxing Crescent, 44% of the Moon is Illuminated
Feb 6
Waxing Crescent
Feb 7
First Quarter
Feb 15
Full
Feb 23
Last Quarter
Mar 1
New

Hourly Weather History & Observations

Time (ICT) Temp. Heat Index Dew Point Humidity Pressure Visibility Wind Dir Wind Speed Gust Speed Precip Events Conditions
12:00 AM 78.8 °F - 73.4 °F 83% 29.77 in 5.6 mi South 8.1 mph - N/A   Unknown
12:30 AM 78.8 °F - 73.4 °F 83% 29.77 in 5.6 mi South 6.9 mph - N/A   Unknown
1:00 AM 78 °F - 73 °F 82% 29.76 in 5 mi South 6.9 mph - -   Mist
1:00 AM 78.8 °F - 73.4 °F 83% 29.74 in 5.0 mi South 6.9 mph - N/A   Unknown
1:30 AM 77.0 °F - 73.4 °F 89% 29.74 in 5.0 mi SSW 5.8 mph - N/A   Unknown
2:00 AM 77.0 °F - 73.4 °F 89% 29.74 in 5.0 mi SSW 6.9 mph - N/A   Mostly Cloudy
2:30 AM 77.0 °F - 73.4 °F 89% 29.74 in 5.0 mi South 6.9 mph - N/A   Mostly Cloudy
3:00 AM 77.0 °F - 73.4 °F 89% 29.74 in 5.0 mi SSW 6.9 mph - N/A   Mostly Cloudy
3:30 AM 78.8 °F - 73.4 °F 83% 29.74 in 5.0 mi South 8.1 mph - N/A   Mostly Cloudy
4:00 AM 78 °F - 73 °F 80% 29.75 in 5 mi South 5.8 mph - -   Mist
4:00 AM 78.8 °F - 73.4 °F 83% 29.74 in 5.0 mi South 5.8 mph - N/A   Mostly Cloudy
4:30 AM 77.0 °F - 73.4 °F 89% 29.74 in 5.0 mi SSE 5.8 mph - N/A   Mostly Cloudy
5:00 AM 77.0 °F - 73.4 °F 89% 29.74 in 5.0 mi SSE 5.8 mph - N/A   Mostly Cloudy
5:30 AM 77.0 °F - 73.4 °F 89% 29.74 in 5.0 mi SSE 6.9 mph - N/A   Mostly Cloudy
6:00 AM 77.0 °F - 73.4 °F 89% 29.77 in 5.0 mi SSE 4.6 mph - N/A   Mostly Cloudy
6:30 AM 77.0 °F - 73.4 °F 89% 29.77 in 5.0 mi South 4.6 mph - N/A   Mostly Cloudy
7:00 AM 77 °F - 72 °F 81% 29.80 in 4 mi SSE 4.6 mph - -   Mist
7:00 AM 77.0 °F - 73.4 °F 89% 29.80 in 4.3 mi SSE 4.6 mph - N/A   Mostly Cloudy
7:30 AM 77.0 °F - 73.4 °F 89% 29.80 in 4.3 mi SSE 6.9 mph - N/A   Mostly Cloudy
8:00 AM 78.8 °F - 73.4 °F 83% 29.80 in 5.0 mi South 6.9 mph - N/A   Unknown
8:30 AM 80.6 °F 85.4 °F 73.4 °F 79% 29.80 in 5.0 mi South 6.9 mph - N/A   Scattered Clouds
9:00 AM 82.4 °F 88.2 °F 73.4 °F 74% 29.83 in 5.0 mi South 9.2 mph - N/A   Mostly Cloudy
9:30 AM 82.4 °F 87.2 °F 71.6 °F 70% 29.83 in 5.6 mi South 10.4 mph - N/A   Mostly Cloudy
10:00 AM 84 °F - 71 °F 56% 29.84 in 6 mi South 11.5 mph - -   Mist
10:00 AM 84.2 °F 89.6 °F 71.6 °F 66% 29.83 in 5.6 mi South 11.5 mph - N/A   Mostly Cloudy
10:30 AM 86.0 °F 91.8 °F 71.6 °F 62% 29.83 in 5.6 mi South 9.2 mph - N/A   Mostly Cloudy
11:00 AM 86.0 °F 90.4 °F 69.8 °F 58% 29.83 in 5.6 mi South 9.2 mph - N/A   Mostly Cloudy
11:30 AM 87.8 °F 93.8 °F 71.6 °F 58% 29.80 in 5.6 mi South 9.2 mph - N/A   Mostly Cloudy
12:00 PM 87.8 °F 93.8 °F 71.6 °F 58% 29.80 in 5.6 mi South 9.2 mph - N/A   Mostly Cloudy
12:30 PM 87.8 °F 92.6 °F 69.8 °F 55% 29.77 in 5.6 mi SSW 8.1 mph - N/A   Mostly Cloudy
1:00 PM 88 °F - 70 °F 47% 29.78 in 6 mi SSW 6.9 mph - -   Haze
1:00 PM 87.8 °F 92.6 °F 69.8 °F 55% 0.00 in 5.6 mi SSW 6.9 mph - N/A   Mostly Cloudy
1:30 PM 87.8 °F 92.6 °F 69.8 °F 55% 29.74 in 5.6 mi SSW 10.4 mph - N/A   Mostly Cloudy
2:00 PM 89.6 °F 94.7 °F 69.8 °F 52% 29.74 in 5.6 mi SSW 9.2 mph - N/A   Mostly Cloudy
2:30 PM 87.8 °F 92.6 °F 69.8 °F 55% 29.71 in 5.6 mi South 10.4 mph - N/A   Mostly Cloudy
3:00 PM 89.6 °F 94.7 °F 69.8 °F 52% 29.71 in 5.6 mi SSE 10.4 mph - N/A   Mostly Cloudy
3:30 PM 89.6 °F 94.7 °F 69.8 °F 52% 29.68 in 5.6 mi South 9.2 mph - N/A   Mostly Cloudy
4:00 PM 89 °F - 69 °F 42% 29.70 in 6 mi South 8.1 mph - -   Haze
4:00 PM 87.8 °F 92.6 °F 69.8 °F 55% 29.68 in 5.6 mi South 8.1 mph - N/A   Unknown
4:30 PM 87.8 °F 92.6 °F 69.8 °F 55% 29.68 in 5.6 mi South 9.2 mph - N/A   Unknown
5:00 PM 87.8 °F 92.6 °F 69.8 °F 55% 29.68 in 5.6 mi SSE 11.5 mph - N/A   Unknown
5:30 PM 86.0 °F 89.4 °F 68.0 °F 55% 29.71 in 5.6 mi South 11.5 mph - N/A   Unknown
6:00 PM 86.0 °F 89.4 °F 68.0 °F 55% 29.71 in 5.6 mi South 10.4 mph - N/A   Unknown
6:30 PM 84.2 °F 87.3 °F 68.0 °F 58% 29.71 in 5.6 mi South 9.2 mph - N/A   Unknown
7:00 PM 83 °F - 69 °F 53% 29.73 in 6 mi South 9.2 mph - -   Haze
7:00 PM 82.4 °F 85.4 °F 68.0 °F 62% 29.71 in 5.6 mi South 9.2 mph - N/A   Unknown
7:30 PM 82.4 °F 86.3 °F 69.8 °F 66% 29.74 in 5.6 mi South 8.1 mph - N/A   Unknown
8:00 PM 82.4 °F 87.2 °F 71.6 °F 70% 29.74 in 5.6 mi South 6.9 mph - N/A   Unknown
8:30 PM 80.6 °F 84.6 °F 71.6 °F 74% 29.74 in 5.6 mi South 6.9 mph - N/A   Unknown
9:00 PM 80.6 °F 84.6 °F 71.6 °F 74% 29.77 in 5.6 mi South 6.9 mph - N/A   Unknown
9:30 PM 80.6 °F 85.4 °F 73.4 °F 79% 29.77 in - SSW 9.2 mph - N/A   Clear
10:00 PM 80 °F - 73 °F 73% 29.77 in 6 mi South 9.2 mph - -   Scattered Clouds
10:00 PM 80.6 °F 85.4 °F 73.4 °F 79% 29.77 in - South 9.2 mph - N/A   Clear
10:30 PM 78.8 °F - 73.4 °F 83% 29.77 in - South 9.2 mph - N/A   Clear
11:00 PM 78.8 °F - 73.4 °F 83% 29.77 in - South 9.2 mph - N/A   Clear
11:30 PM 78.8 °F - 73.4 °F 83% 29.77 in 6.2 mi South 10.4 mph - N/A   Scattered Clouds